DG5MLB Weather Reports


time (UTC)temp
C
wind
direction
speed
KPH
gust
KPH
rain 1hr
cm
rain 24hr
cm
rain mn
cm
humidity
%
barometer
mb
20260506131504 18 107 1.6 14.5 0.00 0.46 0.00 59 1002.1
20260506130015 17 291 0.0 11.3 0.00 0.46 0.00 59 1002.3
20260506124505 17 35 3.2 9.7 0.00 0.46 0.00 59 1002.5
20260506123012 17 20 0.0 11.3 0.00 0.46 0.00 61 1002.6
20260506121511 17 71 1.6 9.7 0.00 0.46 0.00 60 1002.7
20260506120017 17 43 1.6 9.7 0.00 0.46 0.00 60 1002.9
20260506114504 17 49 0.0 0.0 0.00 0.46 0.00 59 1003.1
20260506113014 17 107 0.0 0.0 0.00 0.46 0.00 60 1003.3
20260506111622 17 28 0.0 0.0 0.00 0.46 0.00 59 1003.3
20260506110017 17 111 0.0 0.0 0.00 0.46 0.00 57 1003.6
20260506104502 17 111 0.0 0.0 0.00 0.46 0.00 58 1003.8
20260506103023 17 70 0.0 0.0 0.00 0.46 0.00 59 1003.8
20260506101504 16 37 0.0 0.0 0.00 0.46 0.00 61 1004.1
20260506100029 16 344 0.0 0.0 0.00 0.46 0.00 60 1004.0
20260506094509 16 44 0.0 0.0 0.00 0.46 0.00 61 1004.2
20260506093015 16 117 0.0 0.0 0.00 0.46 0.00 60 1004.2
20260506091505 16 74 0.0 0.0 0.00 0.46 0.00 61 1004.1
20260506090018 16 50 0.0 0.0 0.00 0.46 0.00 62 1004.2
20260506084506 16 95 0.0 0.0 0.00 0.46 0.00 64 1004.3
20260506083018 16 333 0.0 0.0 0.00 0.46 0.00 64 1004.2
20260506081507 15 113 0.0 0.0 0.00 0.46 0.00 66 1004.3
20260506073005 14 298 0.0 0.0 0.00 0.46 0.00 72 1004.7
20260506071510 13 298 0.0 0.0 0.00 0.46 0.00 77 1004.8
20260506070126 13 228 0.0 0.0 0.00 0.46 0.00 85 1004.8
20260506061511 11 228 0.0 0.0 0.00 0.46 0.00 88 1004.9
20260506044502 8 228 0.0 0.0 0.00 0.46 0.00 88 1005.2
20260506043009 8 228 0.0 0.0 0.00 0.46 0.00 88 1005.3
20260506041515 8 228 0.0 0.0 0.00 0.46 0.00 88 1005.4
20260506040027 8 228 0.0 0.0 0.00 0.46 0.00 88 1005.6
20260506034516 8 228 0.0 0.0 0.00 0.46 0.00 87 1005.6
20260506033105 8 228 0.0 0.0 0.00 0.46 0.00 87 1005.7
20260506031524 9 228 0.0 0.0 0.00 0.46 0.00 87 1005.8
20260506030003 9 228 0.0 0.0 0.00 0.46 0.00 87 1005.9
20260506024533 9 228 0.0 0.0 0.00 0.46 0.00 87 1006.1
20260506023004 9 228 0.0 4.8 0.00 0.46 0.00 87 1006.3
20260506021517 9 197 0.0 0.0 0.00 0.46 0.00 87 1006.1
20260506020005 9 197 0.0 3.2 0.00 0.46 0.00 87 1005.9
20260506014519 10 210 0.0 0.0 0.00 0.46 0.00 87 1006.1
20260506013007 10 210 0.0 0.0 0.00 0.46 0.00 87 1006.2
20260506011539 10 210 0.0 0.0 0.00 0.46 0.00 87 1006.4
20260506010005 10 210 0.0 0.0 0.00 0.46 0.00 87 1006.5
20260506004519 10 210 0.0 1.6 0.00 0.46 0.00 87 1006.4
20260506003008 10 210 0.0 1.6 0.00 0.46 0.00 87 1006.4
20260506001521 10 210 0.0 3.2 0.00 0.46 0.00 87 1006.6
20260506000008 10 210 0.0 0.0 0.00 0.46 0.00 87 1006.6
20260505234537 11 210 0.0 0.0 0.00 0.46 0.00 87 1006.7
20260505233008 11 210 0.0 0.0 0.00 0.46 0.00 87 1006.8
20260505231522 11 210 0.0 0.0 0.00 0.46 0.00 86 1006.8
20260505230011 11 210 0.0 0.0 0.00 0.46 0.00 87 1006.9
20260505224534 11 210 0.0 4.8 0.00 0.46 0.00 86 1007.0
20260505223015 11 201 1.6 8.0 0.00 0.46 0.00 86 1007.0
20260505221521 12 199 0.0 4.8 0.00 0.46 0.00 87 1007.0
20260505220008 12 167 0.0 8.0 0.03 0.46 0.00 86 1007.1
20260505214523 12 192 0.0 6.4 0.36 0.46 0.46 89 1007.2
20260505213010 12 170 0.0 8.0 0.41 0.46 0.46 86 1007.2
20260505211603 12 190 0.0 4.8 0.41 0.46 0.46 85 1007.2
20260505210012 12 185 0.0 27.4 0.43 0.43 0.43 83 1007.1
20260505204502 12 226 0.0 4.8 0.10 0.10 0.10 82 1006.9
20260505203014 13 197 0.0 4.8 0.05 0.05 0.05 80 1006.9
20260505201502 14 233 0.0 6.4 0.05 0.05 0.05 74 1006.5
20260505200011 15 222 0.0 6.4 0.00 0.00 0.00 69 1006.3
20260505194619 15 236 1.6 9.7 0.00 0.00 0.00 68 1005.8
20260505193016 15 263 1.6 4.8 0.00 0.00 0.00 70 1005.4
20260505191503 15 205 0.0 1.6 0.00 0.00 0.00 67 1004.7
20260505190013 15 302 0.0 1.6 0.00 0.00 0.00 65 1004.7
20260505184505 16 304 0.0 0.0 0.00 0.00 0.00 64 1004.4
20260505183018 16 304 0.0 6.4 0.00 0.00 0.00 64 1004.2
20260505181506 16 324 4.8 9.7 0.00 0.00 0.00 63 1004.1
20260505180015 16 322 4.8 16.1 0.00 0.00 0.00 61 1004.2
20260505174506 16 336 6.4 11.3 0.00 0.00 0.00 60 1004.2
20260505173017 17 300 6.4 12.9 0.00 0.00 0.00 61 1004.0
20260505171507 17 296 4.8 9.7 0.00 0.00 0.00 64 1004.0
20260505170021 17 338 4.8 14.5 0.00 0.00 0.00 64 1003.8
20260505164507 17 317 6.4 11.3 0.00 0.00 0.00 66 1003.8
20260505163021 17 323 4.8 11.3 0.00 0.00 0.00 67 1003.8
20260505161509 17 346 3.2 12.9 0.00 0.00 0.00 66 1003.9
20260505153017 18 331 1.6 9.7 0.00 0.00 0.00 61 1003.8
20260505151505 18 321 1.6 11.3 0.00 0.00 0.00 56 1004.0